sat.trackr.live / text

‹ back to catalog

STARLINK-34331

NORAD 64204 · 2025-117B

PAYLOAD ACTIVE UNKNOWN

§ Identity

Operator
Country
US
Launch date
2025-05-31
Launch site
AFWTR
Launch vehicle
Mass (kg)
RCS (m²)

Purposes: comms

External: N2YO · Heavens-Above · Gunter

§ Orbital elements

Epoch: 2026-09-19T22:48:29.764800Z

Period
93.85 min
Inclination
53.1580°
Eccentricity
0.0002348
Mean motion
15.34403960 rev/d
Perigee alt
461.1 km
Apogee alt
464.3 km
Semi-major
6,840.8 km
B*
4.9594e-4
RAAN
214.0439°
Arg perigee
64.5941°
Mean anomaly
295.5304°
Rev number
7,431

§ Raw data

STARLINK-343311 64204U 25117B   26262.95034450  .00016419  00000+0  49594-3 0  99942 64204  53.1580 214.0439 0002348  64.5941 295.5304 15.34403960 74317

JSON: /api/v1/satellites/64204 · /tle

For live sub-satellite position, see the globe view (requires WebGL).

§ Visibility from observer

Set your observer location to see the next 7 days of passes ≥ 10°. The values pass through the URL so the page stays shareable.

No JS? Fill the form by hand. The geolocation button needs JavaScript.